Powrót do katalogu

CZ-6A DEB

AktywnySSO
NORAD 54427·DEBRIS·🇨🇳 China

Wystrzelony Nov 11, 2022 z Taiyuan Satellite Launch Center

Loading…

Następne Przeloty (najbliższe 24 godziny)

TLE

ŚwieżeSource: Space-Track

Epoka: Sep 14, 2026, 08:53 UTC

1 54427U 22151FB  26257.37062380  .00000596  00000-0  49805-3 0  9993
2 54427  99.0536 222.9612 0173334 279.4468  78.7134 13.85584697193651

Śledź CZ-6A DEB w czasie rzeczywistym z AllMySat

Download on the App Store